Location: Cedar Falls
(42.5280°N, 92.4450°W)
Time: 02:57:31
(UTC-06:00)

NOSS 3-1 (C) - Visible Passes

Search period start: 27 February 2017 00:00
Search period end: 09 March 2017 00:00
Orbit: 833 x 1376 km, 63.4° (Epoch: 20 February)

Date Brightness Start Highest point End Pass type
(mag) Time Alt. Az. Time Alt. Az. Time Alt. Az.
27 Feb 4.0 19:51:03 10° NNW 19:58:37 73° NE 20:02:15 37° SE visible
27 Feb 5.4 21:42:44 10° NW 21:49:11 29° WSW 21:49:44 29° WSW visible
28 Feb 4.3 19:05:52 10° NNW 19:13:08 52° NE 19:19:19 18° ESE visible
28 Feb 4.9 20:56:55 10° NW 21:04:07 44° WSW 21:06:47 34° SSW visible
01 Mar 4.6 18:20:44 10° NNW 18:27:31 37° NE 18:34:58 10° ESE visible
01 Mar 4.3 20:11:23 10° NW 20:18:57 66° WSW 20:24:01 26° SSE visible
01 Mar 6.3 22:05:21 10° WNW 22:08:50 13° WSW 22:11:31 11° SW visible
02 Mar 4.0 19:26:02 10° NW 19:33:39 87° NE 19:41:27 12° SE visible
02 Mar 5.9 21:18:13 10° WNW 21:23:59 23° WSW 21:28:58 13° SSW visible
03 Mar 4.1 18:40:48 10° NNW 18:48:15 62° NE 18:56:28 10° SE visible
03 Mar 5.4 20:32:09 10° NW 20:39:00 35° WSW 20:46:21 10° S visible
04 Mar 4.8 19:46:28 10° NW 19:53:53 53° WSW 20:01:57 10° S visible
05 Mar 4.3 19:01:02 10° NW 19:08:40 78° WSW 19:17:02 10° SSE visible
05 Mar 6.3 20:54:00 10° WNW 20:58:44 17° WSW 21:03:42 10° SW visible
06 Mar 5.9 20:07:30 10° WNW 20:13:50 28° WSW 20:20:35 10° SSW visible
07 Mar 5.3 19:21:38 10° NW 19:28:48 42° WSW 19:36:32 10° S visible
08 Mar 4.7 18:36:05 10° NW 18:43:38 63° WSW 18:51:53 10° SSE visible
08 Mar 6.7 20:30:21 10° W 20:33:29 13° WSW 20:36:40 10° SW visible
